SWA2393 KBWI-KCMH

Flight info

Callsign SWA2393
Flight time 0h 57m
Altitude 30000
Route FOXHL1 RAMAY Q72 HACKS SCRLT2
Aircraft B738/M-SDE2E3FGHIRWXY/LB1

Departure

Time 2026-05-08 23:39
Airport Baltimore/Washington International Thurgood Marshall Airport (KBWI)

Arrival

Time 2026-05-09 00:37
Airport John Glenn Columbus International Airport (KCMH)
Time Latitude Longitude Altitude Speed Heading
2026-05-08 23:06 39.17734 -76.66944 154 ft 0 kts 234°
2026-05-08 23:23 39.17741 -76.66933 155 ft 3 kts 231°
2026-05-08 23:23 39.17754 -76.66913 155 ft 3 kts 221°
2026-05-08 23:23 39.17770 -76.66898 155 ft 3 kts 203°
2026-05-08 23:24 39.17788 -76.66892 155 ft 3 kts 173°
2026-05-08 23:24 39.17784 -76.66889 155 ft 3 kts 161°
2026-05-08 23:24 39.17767 -76.66876 155 ft 3 kts 145°
2026-05-08 23:24 39.17755 -76.66865 155 ft 0 kts 144°
2026-05-08 23:27 39.17742 -76.66852 155 ft 8 kts 144°
2026-05-08 23:28 39.17682 -76.66796 157 ft 11 kts 145°
2026-05-08 23:28 39.17612 -76.66777 154 ft 9 kts 184°
2026-05-08 23:28 39.17592 -76.66778 154 ft 0 kts 184°
2026-05-08 23:30 39.17587 -76.66779 154 ft 0 kts 184°
2026-05-08 23:30 39.17567 -76.66781 154 ft 8 kts 187°
2026-05-08 23:31 39.17509 -76.66829 154 ft 11 kts 206°
2026-05-08 23:31 39.17461 -76.66772 152 ft 14 kts 96°
2026-05-08 23:31 39.17452 -76.66617 153 ft 19 kts 94°
2026-05-08 23:31 39.17470 -76.66481 153 ft 15 kts 38°
2026-05-08 23:32 39.17526 -76.66386 151 ft 15 kts 104°
2026-05-08 23:32 39.17462 -76.66242 148 ft 21 kts 109°
2026-05-08 23:32 39.17447 -76.66049 147 ft 22 kts 94°
2026-05-08 23:32 39.17437 -76.65859 144 ft 21 kts 94°
2026-05-08 23:33 39.17427 -76.65683 140 ft 15 kts 94°
2026-05-08 23:33 39.17422 -76.65596 141 ft 6 kts 95°
2026-05-08 23:33 39.17419 -76.65577 141 ft 0 kts 103°
2026-05-08 23:33 39.17416 -76.65563 141 ft 3 kts 109°
2026-05-08 23:34 39.17394 -76.65532 140 ft 6 kts 149°
2026-05-08 23:34 39.17373 -76.65526 140 ft 1 kts 174°
2026-05-08 23:38 39.17370 -76.65525 140 ft 3 kts 174°
2026-05-08 23:38 39.17313 -76.65524 139 ft 9 kts 181°
2026-05-08 23:38 39.17283 -76.65549 139 ft 5 kts 257°
2026-05-08 23:38 39.17290 -76.65723 140 ft 50 kts 274°
2026-05-08 23:39 39.17334 -76.66487 150 ft 118 kts 274°
2026-05-08 23:39 39.17408 -76.67776 276 ft 159 kts 274°
2026-05-08 23:39 39.17526 -76.69171 1022 ft 155 kts 276°
2026-05-08 23:39 39.17659 -76.70550 1723 ft 160 kts 276°
2026-05-08 23:40 39.17751 -76.72019 2317 ft 169 kts 273°
2026-05-08 23:40 39.17808 -76.73567 2974 ft 176 kts 272°
2026-05-08 23:40 39.17861 -76.75207 3497 ft 193 kts 270°
2026-05-08 23:40 39.18031 -76.77054 3710 ft 223 kts 283°
2026-05-08 23:41 39.18471 -76.79122 4131 ft 251 kts 284°
2026-05-08 23:41 39.18922 -76.81322 5148 ft 256 kts 283°
2026-05-08 23:41 39.19369 -76.83549 6248 ft 256 kts 282°
2026-05-08 23:41 39.19812 -76.85780 7285 ft 257 kts 282°
2026-05-08 23:42 39.20251 -76.88016 8349 ft 257 kts 281°
2026-05-08 23:42 39.20689 -76.90255 9421 ft 258 kts 281°
2026-05-08 23:42 39.21125 -76.92502 10420 ft 259 kts 282°
2026-05-08 23:42 39.21573 -76.94819 10982 ft 278 kts 282°
2026-05-08 23:43 39.22028 -76.97375 11186 ft 306 kts 277°
2026-05-08 23:43 39.22157 -77.00141 11390 ft 330 kts 270°
2026-05-08 23:43 39.22148 -77.03164 11899 ft 344 kts 270°
2026-05-08 23:43 39.22151 -77.06272 12682 ft 348 kts 271°
2026-05-08 23:44 39.22168 -77.08388 13283 ft 350 kts 272°
2026-05-08 23:44 39.21916 -77.12556 14301 ft 360 kts 256°
2026-05-08 23:44 39.20862 -77.15511 15136 ft 366 kts 242°
2026-05-08 23:44 39.19226 -77.18085 15953 ft 374 kts 232°
2026-05-08 23:45 39.17390 -77.20494 16670 ft 379 kts 231°
2026-05-08 23:45 39.16148 -77.22086 16926 ft 382 kts 231°
2026-05-08 23:45 39.14273 -77.24487 17013 ft 377 kts 231°
2026-05-08 23:45 39.11798 -77.27695 17035 ft 379 kts 231°
2026-05-08 23:46 39.09948 -77.30126 17013 ft 382 kts 232°
2026-05-08 23:46 39.08080 -77.32586 17032 ft 384 kts 232°
2026-05-08 23:46 39.06234 -77.35068 17001 ft 382 kts 236°
2026-05-08 23:46 39.05265 -77.36920 17017 ft 374 kts 248°
2026-05-08 23:47 39.04382 -77.40011 17004 ft 366 kts 262°
2026-05-08 23:47 39.04000 -77.43241 17014 ft 364 kts 266°
2026-05-08 23:47 39.03694 -77.46478 17016 ft 364 kts 266°
2026-05-08 23:47 39.03398 -77.49750 17354 ft 371 kts 266°
2026-05-08 23:48 39.03096 -77.53025 18292 ft 367 kts 266°
2026-05-08 23:48 39.02789 -77.56272 19102 ft 364 kts 266°
2026-05-08 23:48 39.02475 -77.59511 19762 ft 366 kts 266°
2026-05-08 23:48 39.02158 -77.62736 20333 ft 369 kts 266°
2026-05-08 23:49 39.01827 -77.66067 20915 ft 372 kts 265°
2026-05-08 23:49 39.01500 -77.69331 21521 ft 374 kts 265°
2026-05-08 23:49 39.01164 -77.72650 22121 ft 375 kts 265°
2026-05-08 23:49 39.00826 -77.75979 22699 ft 377 kts 265°
2026-05-08 23:50 39.00485 -77.79331 23239 ft 379 kts 265°
2026-05-08 23:50 39.00141 -77.82700 23709 ft 381 kts 265°
2026-05-08 23:50 38.99794 -77.86087 24167 ft 383 kts 265°
2026-05-08 23:50 38.99447 -77.89470 24658 ft 383 kts 265°
2026-05-08 23:51 38.99096 -77.92877 25133 ft 383 kts 265°
2026-05-08 23:51 38.98745 -77.96277 25571 ft 384 kts 265°
2026-05-08 23:51 38.98393 -77.99687 25909 ft 387 kts 265°
2026-05-08 23:51 38.98034 -78.03138 26273 ft 389 kts 265°
2026-05-08 23:52 38.97676 -78.06572 26888 ft 385 kts 265°
2026-05-08 23:52 38.97322 -78.09955 27639 ft 379 kts 265°
2026-05-08 23:52 38.96974 -78.13275 28351 ft 373 kts 264°
2026-05-08 23:52 38.96629 -78.16562 28979 ft 369 kts 264°
2026-05-08 23:53 38.96287 -78.19817 29612 ft 366 kts 264°
2026-05-08 23:53 38.96101 -78.23073 29898 ft 368 kts 272°
2026-05-08 23:53 38.96539 -78.29728 29934 ft 380 kts 275°
2026-05-08 23:54 38.97035 -78.36513 29933 ft 381 kts 275°
2026-05-08 23:55 38.97713 -78.46635 29932 ft 380 kts 274°
2026-05-08 23:55 38.98145 -78.53416 29925 ft 380 kts 274°
2026-05-08 23:56 38.98569 -78.60182 29928 ft 379 kts 274°
2026-05-08 23:56 38.98987 -78.66935 29920 ft 379 kts 274°
2026-05-08 23:57 38.99403 -78.73698 29928 ft 379 kts 274°
2026-05-08 23:57 38.99811 -78.80408 29930 ft 379 kts 274°
2026-05-08 23:58 39.00219 -78.87159 29932 ft 379 kts 274°
2026-05-08 23:58 39.00622 -78.93917 29934 ft 379 kts 274°
2026-05-08 23:59 39.01022 -79.00691 29944 ft 379 kts 274°
2026-05-08 23:59 39.01419 -79.07452 29947 ft 379 kts 274°
2026-05-09 00:00 39.01811 -79.14208 29949 ft 379 kts 274°
2026-05-09 00:00 39.02214 -79.20964 29955 ft 379 kts 274°
2026-05-09 00:01 39.02659 -79.27700 29948 ft 379 kts 275°
2026-05-09 00:01 39.03104 -79.34436 29969 ft 378 kts 274°
2026-05-09 00:02 39.03543 -79.41176 29961 ft 378 kts 274°
2026-05-09 00:02 39.03973 -79.47898 29960 ft 380 kts 274°
2026-05-09 00:03 39.04402 -79.54678 29965 ft 381 kts 274°
2026-05-09 00:03 39.04828 -79.61461 29989 ft 380 kts 275°
2026-05-09 00:04 39.05250 -79.68244 29974 ft 381 kts 274°
2026-05-09 00:04 39.05669 -79.75057 29964 ft 383 kts 274°
2026-05-09 00:05 39.06085 -79.81887 29985 ft 384 kts 274°
2026-05-09 00:05 39.06499 -79.88733 29972 ft 384 kts 274°
2026-05-09 00:06 39.06908 -79.95571 29970 ft 383 kts 274°
2026-05-09 00:06 39.07312 -80.02406 29958 ft 383 kts 274°
2026-05-09 00:07 39.07713 -80.09239 29948 ft 383 kts 274°
2026-05-09 00:07 39.08109 -80.16072 29942 ft 383 kts 274°
2026-05-09 00:08 39.08503 -80.22906 29938 ft 383 kts 274°
2026-05-09 00:08 39.08892 -80.29755 29937 ft 384 kts 274°
2026-05-09 00:09 39.09261 -80.36559 29937 ft 384 kts 274°
2026-05-09 00:09 39.09621 -80.43417 29930 ft 384 kts 274°
2026-05-09 00:10 39.09978 -80.50276 29934 ft 384 kts 273°
2026-05-09 00:10 39.10333 -80.57141 29926 ft 384 kts 273°
2026-05-09 00:11 39.10684 -80.64007 29929 ft 384 kts 273°
2026-05-09 00:11 39.11031 -80.70873 29926 ft 384 kts 273°
2026-05-09 00:12 39.11375 -80.77740 29922 ft 384 kts 273°
2026-05-09 00:12 39.11713 -80.84608 29922 ft 384 kts 273°
2026-05-09 00:13 39.12049 -80.91482 29933 ft 384 kts 273°
2026-05-09 00:13 39.12380 -80.98344 29933 ft 384 kts 273°
2026-05-09 00:14 39.12708 -81.05219 29929 ft 385 kts 272°
2026-05-09 00:14 39.13622 -81.11990 29934 ft 389 kts 287°
2026-05-09 00:15 39.15621 -81.18473 29924 ft 390 kts 288°
2026-05-09 00:15 39.16606 -81.21640 29904 ft 378 kts 288°
2026-05-09 00:15 39.17563 -81.24728 29851 ft 364 kts 287°
2026-05-09 00:15 39.18485 -81.27728 29491 ft 354 kts 287°
2026-05-09 00:16 39.19376 -81.30655 29010 ft 348 kts 287°
2026-05-09 00:16 39.20249 -81.33537 28506 ft 343 kts 287°
2026-05-09 00:16 39.21111 -81.36396 27995 ft 339 kts 287°
2026-05-09 00:16 39.21958 -81.39211 27510 ft 335 kts 287°
2026-05-09 00:17 39.22797 -81.42002 27010 ft 332 kts 287°
2026-05-09 00:17 39.23627 -81.44770 26530 ft 330 kts 287°
2026-05-09 00:17 39.24453 -81.47525 26049 ft 329 kts 287°
2026-05-09 00:17 39.25277 -81.50275 25463 ft 330 kts 287°
2026-05-09 00:18 39.26113 -81.53077 24621 ft 339 kts 288°
2026-05-09 00:18 39.26958 -81.55904 24130 ft 337 kts 288°
2026-05-09 00:18 39.27808 -81.58747 23406 ft 342 kts 288°
2026-05-09 00:18 39.28663 -81.61611 22782 ft 341 kts 288°
2026-05-09 00:19 39.29510 -81.64449 22237 ft 334 kts 288°
2026-05-09 00:19 39.30338 -81.67225 21464 ft 330 kts 288°
2026-05-09 00:19 39.31161 -81.69992 20604 ft 330 kts 288°
2026-05-09 00:19 39.31983 -81.72758 19807 ft 329 kts 289°
2026-05-09 00:20 39.32806 -81.75534 19178 ft 332 kts 289°
2026-05-09 00:20 39.33633 -81.78325 18640 ft 332 kts 289°
2026-05-09 00:20 39.34445 -81.81068 18142 ft 331 kts 289°
2026-05-09 00:20 39.35264 -81.83834 17657 ft 328 kts 289°
2026-05-09 00:21 39.36074 -81.86571 17188 ft 325 kts 289°
2026-05-09 00:21 39.36878 -81.89291 16718 ft 322 kts 289°
2026-05-09 00:21 39.37673 -81.91986 16251 ft 320 kts 289°
2026-05-09 00:21 39.38462 -81.94664 15804 ft 318 kts 289°
2026-05-09 00:22 39.39246 -81.97326 15353 ft 316 kts 289°
2026-05-09 00:22 39.40025 -81.99975 14898 ft 314 kts 289°
2026-05-09 00:22 39.40801 -82.02612 14453 ft 313 kts 289°
2026-05-09 00:22 39.41570 -82.05232 14020 ft 311 kts 289°
2026-05-09 00:23 39.42337 -82.07846 13554 ft 310 kts 289°
2026-05-09 00:23 39.43100 -82.10450 13071 ft 309 kts 288°
2026-05-09 00:23 39.43862 -82.13051 12606 ft 308 kts 288°
2026-05-09 00:23 39.44621 -82.15646 12153 ft 307 kts 288°
2026-05-09 00:24 39.45377 -82.18235 11708 ft 307 kts 288°
2026-05-09 00:24 39.46133 -82.20822 11251 ft 307 kts 288°
2026-05-09 00:24 39.46879 -82.23376 10830 ft 307 kts 288°
2026-05-09 00:24 39.47634 -82.25962 10493 ft 305 kts 288°
2026-05-09 00:25 39.48374 -82.28500 10346 ft 297 kts 287°
2026-05-09 00:25 39.49093 -82.30970 10214 ft 289 kts 287°
2026-05-09 00:25 39.49793 -82.33373 10094 ft 283 kts 289°
2026-05-09 00:25 39.50836 -82.35515 9913 ft 283 kts 310°
2026-05-09 00:26 39.52367 -82.37137 9728 ft 285 kts 319°
2026-05-09 00:26 39.53977 -82.38640 9500 ft 285 kts 320°
2026-05-09 00:26 39.55580 -82.40125 9286 ft 281 kts 320°
2026-05-09 00:26 39.57162 -82.41596 9090 ft 279 kts 319°
2026-05-09 00:27 39.58737 -82.43070 8882 ft 279 kts 319°
2026-05-09 00:27 39.60310 -82.44549 8677 ft 279 kts 319°
2026-05-09 00:27 39.61881 -82.46031 8469 ft 279 kts 318°
2026-05-09 00:27 39.63455 -82.47519 8262 ft 279 kts 318°
2026-05-09 00:28 39.65002 -82.48985 8059 ft 279 kts 319°
2026-05-09 00:28 39.66570 -82.50469 7865 ft 278 kts 318°
2026-05-09 00:28 39.68132 -82.51950 7661 ft 278 kts 318°
2026-05-09 00:28 39.69694 -82.53432 7460 ft 277 kts 318°
2026-05-09 00:29 39.71247 -82.54906 7260 ft 275 kts 318°
2026-05-09 00:29 39.72806 -82.56327 7056 ft 271 kts 320°
2026-05-09 00:29 39.74361 -82.57679 6853 ft 266 kts 320°
2026-05-09 00:29 39.75890 -82.59006 6665 ft 261 kts 320°
2026-05-09 00:30 39.77387 -82.60313 6478 ft 257 kts 320°
2026-05-09 00:30 39.78860 -82.61605 6293 ft 253 kts 320°
2026-05-09 00:30 39.80308 -82.62876 6107 ft 249 kts 319°
2026-05-09 00:30 39.81850 -82.63835 5890 ft 256 kts 344°
2026-05-09 00:31 39.83644 -82.64031 5733 ft 254 kts 350°
2026-05-09 00:31 39.84807 -82.64136 5617 ft 250 kts 349°
2026-05-09 00:31 39.87043 -82.64368 5483 ft 238 kts 349°
2026-05-09 00:31 39.88686 -82.64544 5255 ft 236 kts 348°
2026-05-09 00:32 39.90318 -82.64718 5008 ft 232 kts 349°
2026-05-09 00:32 39.91376 -82.64857 4705 ft 229 kts 345°
2026-05-09 00:32 39.92894 -82.65389 4166 ft 223 kts 327°
2026-05-09 00:32 39.94210 -82.66353 3954 ft 208 kts 323°
2026-05-09 00:33 39.95415 -82.67288 3702 ft 198 kts 323°
2026-05-09 00:33 39.96589 -82.68210 3301 ft 197 kts 323°
2026-05-09 00:33 39.97689 -82.69190 3095 ft 182 kts 308°
2026-05-09 00:33 39.98143 -82.70587 2936 ft 164 kts 274°
2026-05-09 00:34 39.98287 -82.72053 2658 ft 163 kts 274°
2026-05-09 00:34 39.98393 -82.73553 2559 ft 169 kts 272°
2026-05-09 00:34 39.98483 -82.75094 2516 ft 171 kts 272°
2026-05-09 00:34 39.98567 -82.76615 2412 ft 164 kts 271°
2026-05-09 00:35 39.98645 -82.78033 2255 ft 148 kts 272°
2026-05-09 00:35 39.98717 -82.79344 2042 ft 144 kts 272°
2026-05-09 00:35 39.98789 -82.80651 1850 ft 145 kts 272°
2026-05-09 00:35 39.98861 -82.81965 1667 ft 145 kts 273°
2026-05-09 00:36 39.98932 -82.83271 1465 ft 147 kts 273°
2026-05-09 00:36 39.99009 -82.84609 1271 ft 149 kts 273°
2026-05-09 00:36 39.99083 -82.85958 1060 ft 149 kts 273°
2026-05-09 00:36 39.99158 -82.87285 878 ft 144 kts 274°
2026-05-09 00:37 39.99228 -82.88512 825 ft 117 kts 274°
2026-05-09 00:37 39.99275 -82.89287 823 ft 48 kts 276°
2026-05-09 00:37 39.99338 -82.89552 824 ft 20 kts 298°
2026-05-09 00:37 39.99388 -82.89655 824 ft 7 kts 304°
2026-05-09 00:38 39.99405 -82.89684 824 ft 1 kts 307°
2026-05-09 00:38 39.99409 -82.89691 824 ft 3 kts 306°
2026-05-09 00:38 39.99433 -82.89738 822 ft 11 kts 302°
2026-05-09 00:38 39.99472 -82.89839 824 ft 13 kts 291°
2026-05-09 00:39 39.99510 -82.89908 824 ft 9 kts 335°
2026-05-09 00:39 39.99571 -82.89904 824 ft 9 kts 29°
2026-05-09 00:39 39.99592 -82.89802 824 ft 17 kts 94°
2026-05-09 00:39 39.99581 -82.89608 824 ft 23 kts 94°
2026-05-09 00:40 39.99570 -82.89399 824 ft 23 kts 94°
2026-05-09 00:40 39.99558 -82.89197 824 ft 22 kts 94°
2026-05-09 00:40 39.99548 -82.89013 824 ft 15 kts 94°
2026-05-09 00:41 39.99603 -82.88876 821 ft 7 kts 59°
2026-05-09 00:41 39.99608 -82.88798 824 ft 11 kts 94°
2026-05-09 00:41 39.99605 -82.88715 824 ft 6 kts 79°
2026-05-09 00:41 39.99634 -82.88681 824 ft 6 kts 27°
2026-05-09 00:42 39.99652 -82.88669 824 ft 2 kts 26°
2026-05-09 00:42 39.99654 -82.88668 824 ft 0 kts 26°